Location: ActonStarParty
(42.4766°N, 71.4538°W)
Time: 12:22:04
(UTC-04:00)

ISS - Visible Passes

Search period start: 23 September 2014 00:00
Search period end: 03 October 2014 00:00
Orbit: 413 x 416 km, 51.6° (Epoch: 23 September)

Date Brightness Start Highest point End Pass type
(mag) Time Alt. Az. Time Alt. Az. Time Alt. Az.
23 Sep -0.5 04:07:28 16° NNE 04:07:28 16° NNE 04:08:44 10° NE visible
23 Sep -1.0 05:41:24 10° NW 05:43:55 19° NNE 05:46:25 10° ENE visible
24 Sep -0.9 04:53:25 14° NNW 04:54:46 17° N 04:57:05 10° NE visible
25 Sep -0.4 04:06:32 15° NNE 04:06:32 15° NNE 04:07:49 10° NE visible
25 Sep -1.5 05:40:07 10° NW 05:43:04 28° NNE 05:46:00 10° E visible
26 Sep -1.1 04:52:33 17° NNW 04:53:56 22° NNE 04:56:37 10° ENE visible
27 Sep -0.4 04:05:45 17° NE 04:05:45 17° NE 04:07:11 10° ENE visible
27 Sep -2.6 05:38:42 10° NW 05:41:59 54° NNE 05:45:14 10° ESE visible
28 Sep -1.9 04:51:56 29° NNW 04:52:52 36° NNE 04:55:59 10° E visible
29 Sep -0.4 04:05:19 18° ENE 04:05:19 18° ENE 04:06:35 10° E visible
29 Sep -3.2 05:38:13 17° WNW 05:40:36 60° SW 05:43:52 10° SE visible
30 Sep -3.2 04:51:45 74° E 04:51:45 74° E 04:54:52 10° ESE visible
01 Oct -0.1 04:05:25 12° ESE 04:05:25 12° ESE 04:05:40 10° ESE visible
01 Oct -1.9 05:38:20 21° WSW 05:38:56 22° SW 05:41:34 10° S visible
02 Oct -1.0 04:52:10 16° SSE 04:52:10 16° SSE 04:53:03 10° SSE visible
